Regional Weather Roundup
Issued by NWS

Home | Current Version | Previous Version | Text Only | Print | Product List | Glossary Off
Versions: 1 2 3 4 5 6 7 8 9 10 11 12 13 14 15 16 17 18 19 20 21 22 23 24 25 26 27 28 29 30 31 32 33 34 35 36 37 38 39 40 41 42 43 44 45 46 47 48 49 50

000
ASUS43 KTOP 311059
RWRKS

WEATHER ROUNDUP FOR KANSAS
NATIONAL WEATHER SERVICE GOODLAND KS
500 AM CST SAT JAN 31 2015

NOTE:  "FAIR" INDICATES FEW OR NO CLOUDS BELOW 12,000 FEET WITH NO
SIGNIFICANT WEATHER AND/OR OBSTRUCTIONS TO VISIBILITY.

KSZ001>006-013>018-027>032-041>047-311200-
NORTHWEST KANSAS

CITY           SKY/WX    TMP DP  RH WIND       PRES   REMARKS
GOODLAND       CLOUDY    34  33  96 S10       29.94F FOG     WCI  26
HAYS           CLOUDY    32  25  74 SE12      30.10F WCI  23
HILL CITY      CLOUDY    33  32  96 S10       30.07F WCI  25
RUSSELL        LGT SNOW  33  32  96 S13       30.11F FOG     WCI  24
$$

KSZ061>065-074>080-084>089-311200-
SOUTHWEST KANSAS

CITY           SKY/WX    TMP DP  RH WIND       PRES   REMARKS
DODGE CITY     LGT RAIN  33  31  92 S18       30.08S FOG     WCI  22
ELKHART          N/A     33  26  75 S13         N/A  WCI  24
GARDEN CITY    CLOUDY    33  32  96 S18G25    30.02F WCI  22
LIBERAL        CLOUDY    34  30  86 S15       30.08F WCI  24
$$

KSZ066>073-081>083-090>101-311200-
SOUTHEAST KANSAS

CITY           SKY/WX    TMP DP  RH WIND       PRES   REMARKS
CHANUTE        CLOUDY    42  37  82 SE10      30.23F
COFFEYVILLE    CLOUDY    41  31  67 VRB3      30.24F
HUTCHINSON     CLOUDY    37  29  72 SE7       30.18F
MEDICINE LODGE   N/A     35  31  85 SE5       30.16F
NEWTON         CLOUDY    36  27  69 SE7       30.20F
PARSONS        CLOUDY    40  34  79 SE5       30.25F
WICHITA INTL   CLOUDY    39  24  55 SE6       30.20F
WICHITA JABRA  CLOUDY    37  27  67 E5        30.19F
WINFIELD       CLOUDY    40  24  53 E5        30.22F
$$

KSZ007>012-019>026-033>040-048>060-102>105-311200-
NORTHEAST KANSAS

CITY           SKY/WX    TMP DP  RH WIND       PRES   REMARKS
CONCORDIA      CLOUDY    33  33 100 S9        30.17F
EMPORIA        CLOUDY    36  35  96 S6        30.22F
LAWRENCE       LGT RAIN  34  31  88 E3        30.27F
MANHATTAN      LGT RAIN  36  36 100 E3        30.23F FOG
OLATHE IND     MIX PCPN  34  29  82 SE5       30.26F
OLATHE EXE     LGT RAIN  35  29  78 SE6       30.25F
SALINA         CLOUDY    36  33  89 S6        30.19F
TOPEKA BILLARD LGT RAIN  35  33  92 E3        30.26F FOG
TOPEKA FORBES  LGT RAIN  36  33  89 CALM      30.25F FOG
$$


USA.gov is the U.S. government's official web portal to all federal, state and local government web resources and services.